User: anonymous   Login
Location: Unspecified
(0.0000°N, 0.0000°E)
Time: 23:10:34
(UTC+00:00)
Language:

Microlab 1 - Orbit

View from above orbital plane
View from above orbital plane
View from above satellite
View from above satellite

Ground track
Ground track

The orbit data is extracted from the following two-line orbital elements,

1 23547U 95017C   18015.90480082 +.00000099 +00000-0 +34706-4 0  9991
2 23547 069.9800 348.7842 0006841 079.0541 281.1367 14.59599719209352
Epoch (UTC): 15 January 2018 21:42:54
Eccentricity: 0.0006841
inclination: 69.9800°
perigee height: 689 km
apogee height: 699 km
right ascension of ascending node: 348.7842°
argument of perigee: 79.0541°
revolutions per day: 14.59599719
mean anomaly at epoch: 281.1367°
orbit number at epoch: 20935

The dashed part of the orbit path shows where the satellite is in the earth's shadow,  

DLR